User: anonymous   Login
Location: Bangkok
(13.7500°N, 100.5170°E)
Time: 11:08:31
(UTC+07:00)
Language:

Cosmos 1898 Rocket - Orbit

View from above orbital plane
View from above orbital plane
View from above satellite
View from above satellite

Ground track
Ground track

The orbit data is extracted from the following two-line orbital elements,

1 18586U 87098B   17328.64769983  .00000070  00000-0  32744-4 0  9994
2 18586  74.0073 359.8617 0020717  14.8453 345.3304 14.36802460570404
Epoch (UTC): 24 November 2017 15:32:41
Eccentricity: 0.0020717
inclination: 74.0073°
perigee height: 754 km
apogee height: 784 km
right ascension of ascending node: 359.8617°
argument of perigee: 14.8453°
revolutions per day: 14.36802460
mean anomaly at epoch: 345.3304°
orbit number at epoch: 57040

The dashed part of the orbit path shows where the satellite is in the earth's shadow,  

DLR